Tracking 29790 objects as of 12-Oct-2024
HD Live streaming from Space Station
objects crossing your sky now

NAVSTAR 15 (USA 42)

Track NAVSTAR 15 (USA 42) now!
NAVSTAR 15 (USA 42) is classified as:


NORAD ID: 20185
Int'l Code: 1989-064A
Perigee: 21,520.3 km
Apogee: 21,578.7 km
Inclination: 54.6 °
Period: 773.8 minutes
Semi major axis: 27920 km
RCS: 1.9952 m2 (large)
Launch date: August 18, 1989
Source: United States (US)
Launch site: AIR FORCE EASTERN TEST RANGE (AFETR)
Your satellite tracking list
Your tracking list is empty




NASA's NSSDC Master Catalog

Two Line Element Set (TLE):
1 20185U 89064A   24283.58298623  .00000060  00000-0  00000-0 0  9991
2 20185  54.5639 110.4116 0010466 309.8440  15.3007  1.86087919244745
Source of the keplerian elements: AFSPC